Flag for United Kingdom Weather past 2 weeks in Bournemouth, England, United Kingdom

Now
61 °F

Passing clouds.


Feels Like: 61 °F
Forecast: 53 / 65 °F
Wind: 18 mph from West

Location: Bournemouth Airport

Current Time: Jul 28, 2015 at 10:24:22 AM

Latest Report: Jul 28, 2015 at 9:50 AM


Visibility: N/A

Pressure: 29.77 "Hg

Humidity: 59%

Dew point: 46 °F

Location of BournemouthLocation

Historic Weather in Bournemouth — Graph

°F

Bournemouth temperature yesterday

Maximum temperature yesterday: 66 °F (at 4:20 PM)
Minimum temperature yesterday: 59 °F (at 4:50 AM)
Average temperature yesterday: 62 °F

Past Weeks' High & Low Weather Summary

 TemperatureHumidityPressure
High75 °F (Jul 16, 7:50 PM)100% (Jul 20, 4:50 AM)30.09 "Hg (Jul 20, 4:50 AM)
Low46 °F (Jul 18, 5:50 AM)40% (Jul 25, 5:50 PM)29.47 "Hg (Jul 26, 3:20 PM)
Average63 °F77%29.91 "Hg
* Reported Jul 13 9:20 AM — Jul 28 9:20 AM, Bournemouth, Weather by CustomWeather, © 2015

Note: Actual official high and low records may vary slightly from our data, if they occured in-between our weather recording intervals... More about our weather records

Advertising

Bournemouth weather history for previous 24 hours

 ConditionsComfort  
Time TempWeatherWind HumidityBarometerVisibility
9:20 AM
Tue, Jul 28
61 °FPassing clouds.20 mph63%29.77 "HgN/A
8:50 AM61 °FSunny.16 mph63%29.74 "Hg10 mi
8:20 AM59 °FPassing clouds.13 mph68%29.74 "HgN/A
7:50 AM59 °FSunny.16 mph68%29.74 "Hg10 mi
7:20 AM59 °FPassing clouds.13 mph72%29.74 "HgN/A
6:50 AM57 °FPassing clouds.15 mph72%29.74 "HgN/A
6:20 AM57 °FPassing clouds.13 mph72%29.74 "HgN/A
5:50 AM57 °FPassing clouds.13 mph77%29.71 "HgN/A
5:20 AM57 °FPassing clouds.12 mph77%29.71 "HgN/A
10:50 PM
Mon, Jul 27
59 °FPassing clouds.14 mph77%29.71 "HgN/A
10:20 PM59 °FPassing clouds.14 mph77%29.71 "HgN/A
9:50 PM59 °FPartly sunny.16 mph77%29.71 "HgN/A
9:20 PM59 °FPartly sunny.16 mph77%29.68 "HgN/A
8:50 PM61 °FPartly sunny.17 mph68%29.68 "HgN/A
8:20 PM61 °FPartly sunny.18 mph68%29.68 "HgN/A
7:50 PM61 °FPartly sunny.21 mph68%29.68 "HgN/A
7:20 PM63 °FPartly sunny.15 mph64%29.68 "HgN/A
6:50 PM63 °FPartly sunny.15 mph64%29.65 "HgN/A
6:20 PM64 °FPartly sunny.17 mph56%29.65 "HgN/A
5:50 PM64 °FPartly sunny.18 mph56%29.65 "HgN/A
5:20 PM64 °FBroken clouds.18 mph60%29.65 "HgN/A
4:50 PM64 °FBroken clouds.20 mph60%29.65 "HgN/A
4:20 PM66 °FPartly sunny.24 mph52%29.65 "HgN/A
3:50 PM64 °FBroken clouds.18 mph60%29.65 "HgN/A
3:20 PM64 °FPartly sunny.18 mph64%29.62 "HgN/A
2:50 PM64 °FBroken clouds.17 mph68%29.62 "HgN/A
2:20 PM63 °FBroken clouds.18 mph68%29.62 "HgN/A
1:50 PM64 °FBroken clouds.22 mph64%29.62 "HgN/A
1:20 PM64 °FBroken clouds.22 mph68%29.62 "HgN/A
12:50 PM63 °FBroken clouds.18 mph68%29.62 "HgN/A
12:20 PM64 °FBroken clouds.18 mph64%29.59 "HgN/A
11:50 AM63 °FScattered clouds.17 mph77%29.59 "HgN/A
11:20 AM61 °FScattered clouds.15 mph88%29.59 "HgN/A
10:50 AM61 °FScattered clouds.15 mph94%29.59 "Hg5 mi
10:20 AM61 °FDrizzle. Broken clouds.15 mph88%29.56 "Hg3 mi
Weather by CustomWeather, © 2015

See weather overviewHow to use our weather pages